owner,sensor,date,latitude,longitude,vertical_datum,wind_speed,wind_to_direction,wind_speed_of_gust,qcFlag 
DISL,ioos:station:DISL:MHPA:1,2011-11-01T00:00:00Z,30.6671,-87.9365,8.5,1.16,22.84,-9999.0,'1111122,1111122,1111122' 
DISL,ioos:station:DISL:MHPA:1,2011-11-01T00:30:00Z,30.6671,-87.9365,8.5,1.3,24.29,-9999.0,'1111122,1111122,1111122' 
DISL,ioos:station:DISL:MHPA:1,2011-11-01T01:00:00Z,30.6671,-87.9365,8.5,1.08,34.35,-9999.0,'1111122,1111122,1111122' 
DISL,ioos:station:DISL:MHPA:1,2011-11-01T01:30:00Z,30.6671,-87.9365,8.5,1.15,38.35,-9999.0,'1111122,1111122,1111122' 
DISL,ioos:station:DISL:MHPA:1,2011-11-01T02:00:00Z,30.6671,-87.9365,8.5,1.29,18.75,-9999.0,'1111122,1111122,1111122' 
DISL,ioos:station:DISL:MHPA:1,2011-11-01T02:30:00Z,30.6671,-87.9365,8.5,1.45,11.55,-9999.0,'1111122,1111122,1111122' 
DISL,ioos:station:DISL:MHPA:1,2011-11-01T03:00:00Z,30.6671,-87.9365,8.5,1.23,30.25,-9999.0,'1111122,1111122,1111122' 
DISL,ioos:station:DISL:MHPA:1,2011-11-01T03:30:00Z,30.6671,-87.9365,8.5,1.51,6.402,-9999.0,'1111122,1111122,1111122' 
DISL,ioos:station:DISL:MHPA:1,2011-11-01T04:00:00Z,30.6671,-87.9365,8.5,1.33,27.81,-9999.0,'1111122,1111122,1111122' 
DISL,ioos:station:DISL:MHPA:1,2011-11-01T04:30:00Z,30.6671,-87.9365,8.5,1.4,358.8,-9999.0,'1111122,1111122,1111122' 
DISL,ioos:station:DISL:MHPA:1,2011-11-01T05:00:00Z,30.6671,-87.9365,8.5,1.92,6.644,-9999.0,'1111122,1111122,1111122' 
DISL,ioos:station:DISL:MHPA:1,2011-11-01T05:30:00Z,30.6671,-87.9365,8.5,1.44,15.08,-9999.0,'1111122,1111122,1111122' 
DISL,ioos:station:DISL:MHPA:1,2011-11-01T06:00:00Z,30.6671,-87.9365,8.5,1.84,4.553,-9999.0,'1111122,1111122,1111122' 
DISL,ioos:station:DISL:MHPA:1,2011-11-01T06:30:00Z,30.6671,-87.9365,8.5,1.96,0.707,-9999.0,'1111122,1111122,1111122' 
DISL,ioos:station:DISL:MHPA:1,2011-11-01T07:00:00Z,30.6671,-87.9365,8.5,2.28,355.8,-9999.0,'1111122,1111122,1111122' 
DISL,ioos:station:DISL:MHPA:1,2011-11-01T07:30:00Z,30.6671,-87.9365,8.5,2.04,0.078,-9999.0,'1111122,1111122,1111122' 
DISL,ioos:station:DISL:MHPA:1,2011-11-01T08:00:00Z,30.6671,-87.9365,8.5,1.7,17.38,-9999.0,'1111122,1111122,1111122' 
DISL,ioos:station:DISL:MHPA:1,2011-11-01T08:30:00Z,30.6671,-87.9365,8.5,2.43,52.18,-9999.0,'1111122,1111122,1111122' 
DISL,ioos:station:DISL:MHPA:1,2011-11-01T09:00:00Z,30.6671,-87.9365,8.5,2.2,48.25,-9999.0,'1111122,1111122,1111122' 
DISL,ioos:station:DISL:MHPA:1,2011-11-01T09:30:00Z,30.6671,-87.9365,8.5,1.43,358.2,-9999.0,'1111122,1111122,1111122' 
DISL,ioos:station:DISL:MHPA:1,2011-11-01T10:00:00Z,30.6671,-87.9365,8.5,1.75,339.8,-9999.0,'1111122,1111122,1111122' 
DISL,ioos:station:DISL:MHPA:1,2011-11-01T10:30:00Z,30.6671,-87.9365,8.5,1.08,352.0,-9999.0,'1111122,1111122,1111122' 
DISL,ioos:station:DISL:MHPA:1,2011-11-01T11:00:00Z,30.6671,-87.9365,8.5,1.12,347.8,-9999.0,'1111122,1111122,1111122' 
DISL,ioos:station:DISL:MHPA:1,2011-11-01T11:30:00Z,30.6671,-87.9365,8.5,1.61,348.2,-9999.0,'1111122,1111122,1111122' 
DISL,ioos:station:DISL:MHPA:1,2011-11-01T12:00:00Z,30.6671,-87.9365,8.5,2.1,343.6,-9999.0,'1111122,1111122,1111122' 
DISL,ioos:station:DISL:MHPA:1,2011-11-01T12:30:00Z,30.6671,-87.9365,8.5,1.9,351.5,-9999.0,'1111122,1111122,1111122' 
DISL,ioos:station:DISL:MHPA:1,2011-11-01T13:00:00Z,30.6671,-87.9365,8.5,1.74,354.6,-9999.0,'1111122,1111122,1111122' 
DISL,ioos:station:DISL:MHPA:1,2011-11-01T13:30:00Z,30.6671,-87.9365,8.5,2.17,341.2,-9999.0,'1111122,1111122,1111122' 
DISL,ioos:station:DISL:MHPA:1,2011-11-01T14:00:00Z,30.6671,-87.9365,8.5,1.77,88.2,-9999.0,'1111122,1111122,1111122' 
DISL,ioos:station:DISL:MHPA:1,2011-11-01T14:30:00Z,30.6671,-87.9365,8.5,2.58,89.6,-9999.0,'1111122,1111122,1111122' 
DISL,ioos:station:DISL:MHPA:1,2011-11-01T15:00:00Z,30.6671,-87.9365,8.5,3.42,85.7,-9999.0,'1111122,1111122,1111122' 
DISL,ioos:station:DISL:MHPA:1,2011-11-01T15:30:00Z,30.6671,-87.9365,8.5,3.51,94.9,-9999.0,'1111122,1111122,1111122' 
DISL,ioos:station:DISL:MHPA:1,2011-11-01T16:00:00Z,30.6671,-87.9365,8.5,3.64,80.8,-9999.0,'1111122,1111122,1111122' 
DISL,ioos:station:DISL:MHPA:1,2011-11-01T16:30:00Z,30.6671,-87.9365,8.5,3.4,109.6,-9999.0,'1111122,1111122,1111122' 
DISL,ioos:station:DISL:MHPA:1,2011-11-01T17:00:00Z,30.6671,-87.9365,8.5,3.68,109.9,-9999.0,'1111122,1111122,1111122' 
DISL,ioos:station:DISL:MHPA:1,2011-11-01T17:30:00Z,30.6671,-87.9365,8.5,3.59,122.6,-9999.0,'1111122,1111122,1111122' 
DISL,ioos:station:DISL:MHPA:1,2011-11-01T18:00:00Z,30.6671,-87.9365,8.5,2.75,134.4,-9999.0,'1111122,1111122,1111122' 
DISL,ioos:station:DISL:MHPA:1,2011-11-01T18:30:00Z,30.6671,-87.9365,8.5,1.42,139.8,-9999.0,'1111122,1111122,1111122' 
DISL,ioos:station:DISL:MHPA:1,2011-11-01T19:00:00Z,30.6671,-87.9365,8.5,2.03,217.4,-9999.0,'1111122,1111122,1111122' 
DISL,ioos:station:DISL:MHPA:1,2011-11-01T19:30:00Z,30.6671,-87.9365,8.5,3.87,245.8,-9999.0,'1111122,1111122,1111122' 
DISL,ioos:station:DISL:MHPA:1,2011-11-01T20:00:00Z,30.6671,-87.9365,8.5,5.05,249.7,-9999.0,'1111122,1111122,1111122' 
DISL,ioos:station:DISL:MHPA:1,2011-11-01T20:30:00Z,30.6671,-87.9365,8.5,5.22,227.4,-9999.0,'1111122,1111122,1111122' 
DISL,ioos:station:DISL:MHPA:1,2011-11-01T21:00:00Z,30.6671,-87.9365,8.5,4.93,217.4,-9999.0,'1111122,1111122,1111122' 
DISL,ioos:station:DISL:MHPA:1,2011-11-01T21:30:00Z,30.6671,-87.9365,8.5,4.78,214.0,-9999.0,'1111122,1111122,1111122' 
DISL,ioos:station:DISL:MHPA:1,2011-11-01T22:00:00Z,30.6671,-87.9365,8.5,4.81,208.9,-9999.0,'1111122,1111122,1111122' 
DISL,ioos:station:DISL:MHPA:1,2011-11-01T22:30:00Z,30.6671,-87.9365,8.5,4.41,199.9,-9999.0,'1111122,1111122,1111122' 
DISL,ioos:station:DISL:MHPA:1,2011-11-01T23:00:00Z,30.6671,-87.9365,8.5,4.24,206.0,-9999.0,'1111122,1111122,1111122' 
DISL,ioos:station:DISL:MHPA:1,2011-11-01T23:30:00Z,30.6671,-87.9365,8.5,4.0,201.8,-9999.0,'1111122,1111122,1111122' 
DISL,ioos:station:DISL:MHPA:1,2011-11-02T00:00:00Z,30.6671,-87.9365,8.5,3.71,189.8,-9999.0,'1111122,1111122,1111122' 
DISL,ioos:station:DISL:MHPA:1,2011-11-02T00:30:00Z,30.6671,-87.9365,8.5,1.7,124.9,-9999.0,'1111122,1111122,1111122' 
DISL,ioos:station:DISL:MHPA:1,2011-11-02T01:00:00Z,30.6671,-87.9365,8.5,1.31,110.1,-9999.0,'1111122,1111122,1111122' 
DISL,ioos:station:DISL:MHPA:1,2011-11-02T01:30:00Z,30.6671,-87.9365,8.5,1.53,100.6,-9999.0,'1111122,1111122,1111122' 
DISL,ioos:station:DISL:MHPA:1,2011-11-02T02:00:00Z,30.6671,-87.9365,8.5,1.29,109.0,-9999.0,'1111122,1111122,1111122' 
DISL,ioos:station:DISL:MHPA:1,2011-11-02T02:30:00Z,30.6671,-87.9365,8.5,0.55,111.4,-9999.0,'1111122,1111122,1111122' 
DISL,ioos:station:DISL:MHPA:1,2011-11-02T03:00:00Z,30.6671,-87.9365,8.5,0.27,73.9,-9999.0,'1111122,1111122,1111122' 
DISL,ioos:station:DISL:MHPA:1,2011-11-02T03:30:00Z,30.6671,-87.9365,8.5,0.57,92.3,-9999.0,'1111122,1111122,1111122' 
DISL,ioos:station:DISL:MHPA:1,2011-11-02T04:00:00Z,30.6671,-87.9365,8.5,1.41,82.8,-9999.0,'1111122,1111122,1111122' 
DISL,ioos:station:DISL:MHPA:1,2011-11-02T04:30:00Z,30.6671,-87.9365,8.5,1.3,73.2,-9999.0,'1111122,1111122,1111122' 
DISL,ioos:station:DISL:MHPA:1,2011-11-02T05:00:00Z,30.6671,-87.9365,8.5,1.37,77.0,-9999.0,'1111122,1111122,1111122' 
DISL,ioos:station:DISL:MHPA:1,2011-11-02T05:30:00Z,30.6671,-87.9365,8.5,1.62,68.94,-9999.0,'1111122,1111122,1111122' 
DISL,ioos:station:DISL:MHPA:1,2011-11-02T06:00:00Z,30.6671,-87.9365,8.5,1.55,61.08,-9999.0,'1111122,1111122,1111122' 
DISL,ioos:station:DISL:MHPA:1,2011-11-02T06:30:00Z,30.6671,-87.9365,8.5,1.99,93.4,-9999.0,'1111122,1111122,1111122' 
DISL,ioos:station:DISL:MHPA:1,2011-11-02T07:00:00Z,30.6671,-87.9365,8.5,2.61,96.8,-9999.0,'1111122,1111122,1111122' 
DISL,ioos:station:DISL:MHPA:1,2011-11-02T07:30:00Z,30.6671,-87.9365,8.5,2.72,89.8,-9999.0,'1111122,1111122,1111122' 
DISL,ioos:station:DISL:MHPA:1,2011-11-02T08:00:00Z,30.6671,-87.9365,8.5,2.79,94.1,-9999.0,'1111122,1111122,1111122' 
DISL,ioos:station:DISL:MHPA:1,2011-11-02T08:30:00Z,30.6671,-87.9365,8.5,2.82,85.7,-9999.0,'1111122,1111122,1111122' 
DISL,ioos:station:DISL:MHPA:1,2011-11-02T09:00:00Z,30.6671,-87.9365,8.5,2.42,68.61,-9999.0,'1111122,1111122,1111122' 
DISL,ioos:station:DISL:MHPA:1,2011-11-02T09:30:00Z,30.6671,-87.9365,8.5,2.6,86.2,-9999.0,'1111122,1111122,1111122' 
DISL,ioos:station:DISL:MHPA:1,2011-11-02T10:00:00Z,30.6671,-87.9365,8.5,2.81,94.1,-9999.0,'1111122,1111122,1111122' 
DISL,ioos:station:DISL:MHPA:1,2011-11-02T10:30:00Z,30.6671,-87.9365,8.5,2.51,81.6,-9999.0,'1111122,1111122,1111122' 
DISL,ioos:station:DISL:MHPA:1,2011-11-02T11:00:00Z,30.6671,-87.9365,8.5,3.24,95.8,-9999.0,'1111122,1111122,1111122' 
DISL,ioos:station:DISL:MHPA:1,2011-11-02T11:30:00Z,30.6671,-87.9365,8.5,3.79,81.3,-9999.0,'1111122,1111122,1111122' 
DISL,ioos:station:DISL:MHPA:1,2011-11-02T12:00:00Z,30.6671,-87.9365,8.5,3.29,77.9,-9999.0,'1111122,1111122,1111122' 
DISL,ioos:station:DISL:MHPA:1,2011-11-02T12:30:00Z,30.6671,-87.9365,8.5,2.95,75.8,-9999.0,'1111122,1111122,1111122' 
DISL,ioos:station:DISL:MHPA:1,2011-11-02T13:00:00Z,30.6671,-87.9365,8.5,3.25,83.6,-9999.0,'1111122,1111122,1111122' 
DISL,ioos:station:DISL:MHPA:1,2011-11-02T13:30:00Z,30.6671,-87.9365,8.5,3.46,91.4,-9999.0,'1111122,1111122,1111122' 
DISL,ioos:station:DISL:MHPA:1,2011-11-02T14:00:00Z,30.6671,-87.9365,8.5,4.29,93.8,-9999.0,'1111122,1111122,1111122' 
DISL,ioos:station:DISL:MHPA:1,2011-11-02T14:30:00Z,30.6671,-87.9365,8.5,4.12,84.5,-9999.0,'1111122,1111122,1111122' 
DISL,ioos:station:DISL:MHPA:1,2011-11-02T15:00:00Z,30.6671,-87.9365,8.5,4.54,94.0,-9999.0,'1111122,1111122,1111122' 
DISL,ioos:station:DISL:MHPA:1,2011-11-02T15:30:00Z,30.6671,-87.9365,8.5,3.87,89.2,-9999.0,'1111122,1111122,1111122' 
DISL,ioos:station:DISL:MHPA:1,2011-11-02T16:00:00Z,30.6671,-87.9365,8.5,3.83,98.8,-9999.0,'1111122,1111122,1111122' 
DISL,ioos:station:DISL:MHPA:1,2011-11-02T16:30:00Z,30.6671,-87.9365,8.5,3.71,93.9,-9999.0,'1111122,1111122,1111122' 
DISL,ioos:station:DISL:MHPA:1,2011-11-02T17:00:00Z,30.6671,-87.9365,8.5,2.77,111.2,-9999.0,'1111122,1111122,1111122' 
DISL,ioos:station:DISL:MHPA:1,2011-11-02T17:30:00Z,30.6671,-87.9365,8.5,2.37,123.0,-9999.0,'1111122,1111122,1111122' 
DISL,ioos:station:DISL:MHPA:1,2011-11-02T18:00:00Z,30.6671,-87.9365,8.5,2.8,135.8,-9999.0,'1111122,1111122,1111122' 
DISL,ioos:station:DISL:MHPA:1,2011-11-02T18:30:00Z,30.6671,-87.9365,8.5,2.38,76.2,-9999.0,'1111122,1111122,1111122' 
DISL,ioos:station:DISL:MHPA:1,2011-11-02T19:00:00Z,30.6671,-87.9365,8.5,2.08,194.4,-9999.0,'1111122,1111122,1111122' 
DISL,ioos:station:DISL:MHPA:1,2011-11-02T19:30:00Z,30.6671,-87.9365,8.5,3.21,243.0,-9999.0,'1111122,1111122,1111122' 
DISL,ioos:station:DISL:MHPA:1,2011-11-02T20:00:00Z,30.6671,-87.9365,8.5,2.64,246.3,-9999.0,'1111122,1111122,1111122' 
DISL,ioos:station:DISL:MHPA:1,2011-11-02T20:30:00Z,30.6671,-87.9365,8.5,3.27,239.7,-9999.0,'1111122,1111122,1111122' 
DISL,ioos:station:DISL:MHPA:1,2011-11-02T21:00:00Z,30.6671,-87.9365,8.5,3.78,231.3,-9999.0,'1111122,1111122,1111122' 
DISL,ioos:station:DISL:MHPA:1,2011-11-02T21:30:00Z,30.6671,-87.9365,8.5,3.37,236.6,-9999.0,'1111122,1111122,1111122' 
DISL,ioos:station:DISL:MHPA:1,2011-11-02T22:00:00Z,30.6671,-87.9365,8.5,2.73,212.2,-9999.0,'1111122,1111122,1111122' 
DISL,ioos:station:DISL:MHPA:1,2011-11-02T22:30:00Z,30.6671,-87.9365,8.5,3.28,159.0,-9999.0,'1111122,1111122,1111122' 
DISL,ioos:station:DISL:MHPA:1,2011-11-02T23:00:00Z,30.6671,-87.9365,8.5,3.38,136.3,-9999.0,'1111122,1111122,1111122' 
DISL,ioos:station:DISL:MHPA:1,2011-11-02T23:30:00Z,30.6671,-87.9365,8.5,2.7,126.1,-9999.0,'1111122,1111122,1111122' 
DISL,ioos:station:DISL:MHPA:1,2011-11-03T00:00:00Z,30.6671,-87.9365,8.5,2.59,117.7,-9999.0,'1111122,1111122,1111122' 
DISL,ioos:station:DISL:MHPA:1,2011-11-03T00:30:00Z,30.6671,-87.9365,8.5,2.19,112.2,-9999.0,'1111122,1111122,1111122' 
DISL,ioos:station:DISL:MHPA:1,2011-11-03T01:00:00Z,30.6671,-87.9365,8.5,1.91,107.5,-9999.0,'1111122,1111122,1111122' 
DISL,ioos:station:DISL:MHPA:1,2011-11-03T01:30:00Z,30.6671,-87.9365,8.5,1.81,113.4,-9999.0,'1111122,1111122,1111122' 
DISL,ioos:station:DISL:MHPA:1,2011-11-03T02:00:00Z,30.6671,-87.9365,8.5,2.31,113.7,-9999.0,'1111122,1111122,1111122' 
DISL,ioos:station:DISL:MHPA:1,2011-11-03T02:30:00Z,30.6671,-87.9365,8.5,2.75,113.6,-9999.0,'1111122,1111122,1111122' 
DISL,ioos:station:DISL:MHPA:1,2011-11-03T03:00:00Z,30.6671,-87.9365,8.5,2.13,106.9,-9999.0,'1111122,1111122,1111122' 
DISL,ioos:station:DISL:MHPA:1,2011-11-03T03:30:00Z,30.6671,-87.9365,8.5,2.43,114.2,-9999.0,'1111122,1111122,1111122' 
DISL,ioos:station:DISL:MHPA:1,2011-11-03T04:00:00Z,30.6671,-87.9365,8.5,2.62,117.5,-9999.0,'1111122,1111122,1111122' 
DISL,ioos:station:DISL:MHPA:1,2011-11-03T04:30:00Z,30.6671,-87.9365,8.5,2.17,123.6,-9999.0,'1111122,1111122,1111122' 
DISL,ioos:station:DISL:MHPA:1,2011-11-03T05:00:00Z,30.6671,-87.9365,8.5,2.01,124.6,-9999.0,'1111122,1111122,1111122' 
DISL,ioos:station:DISL:MHPA:1,2011-11-03T05:30:00Z,30.6671,-87.9365,8.5,3.2,122.0,-9999.0,'1111122,1111122,1111122' 
DISL,ioos:station:DISL:MHPA:1,2011-11-03T06:00:00Z,30.6671,-87.9365,8.5,1.3,116.6,-9999.0,'1111122,1111122,1111122' 
DISL,ioos:station:DISL:MHPA:1,2011-11-03T06:30:00Z,30.6671,-87.9365,8.5,1.09,110.7,-9999.0,'1111122,1111122,1111122' 
DISL,ioos:station:DISL:MHPA:1,2011-11-03T07:00:00Z,30.6671,-87.9365,8.5,1.52,107.1,-9999.0,'1111122,1111122,1111122' 
DISL,ioos:station:DISL:MHPA:1,2011-11-03T07:30:00Z,30.6671,-87.9365,8.5,0.75,121.8,-9999.0,'1111122,1111122,1111122' 
DISL,ioos:station:DISL:MHPA:1,2011-11-03T08:00:00Z,30.6671,-87.9365,8.5,3.3,120.6,-9999.0,'1111122,1111122,1111122' 
DISL,ioos:station:DISL:MHPA:1,2011-11-03T08:30:00Z,30.6671,-87.9365,8.5,2.87,106.3,-9999.0,'1111122,1111122,1111122' 
DISL,ioos:station:DISL:MHPA:1,2011-11-03T09:00:00Z,30.6671,-87.9365,8.5,2.53,109.0,-9999.0,'1111122,1111122,1111122' 
DISL,ioos:station:DISL:MHPA:1,2011-11-03T09:30:00Z,30.6671,-87.9365,8.5,2.62,121.7,-9999.0,'1111122,1111122,1111122' 
DISL,ioos:station:DISL:MHPA:1,2011-11-03T10:00:00Z,30.6671,-87.9365,8.5,2.47,105.7,-9999.0,'1111122,1111122,1111122' 
DISL,ioos:station:DISL:MHPA:1,2011-11-03T10:30:00Z,30.6671,-87.9365,8.5,2.02,111.8,-9999.0,'1111122,1111122,1111122' 
DISL,ioos:station:DISL:MHPA:1,2011-11-03T11:00:00Z,30.6671,-87.9365,8.5,2.63,129.2,-9999.0,'1111122,1111122,1111122' 
DISL,ioos:station:DISL:MHPA:1,2011-11-03T11:30:00Z,30.6671,-87.9365,8.5,2.76,110.1,-9999.0,'1111122,1111122,1111122' 
DISL,ioos:station:DISL:MHPA:1,2011-11-03T12:00:00Z,30.6671,-87.9365,8.5,3.04,99.8,-9999.0,'1111122,1111122,1111122' 
DISL,ioos:station:DISL:MHPA:1,2011-11-03T12:30:00Z,30.6671,-87.9365,8.5,4.8,112.0,-9999.0,'1111122,1111122,1111122' 
DISL,ioos:station:DISL:MHPA:1,2011-11-03T13:00:00Z,30.6671,-87.9365,8.5,3.94,112.6,-9999.0,'1111122,1111122,1111122' 
DISL,ioos:station:DISL:MHPA:1,2011-11-03T13:30:00Z,30.6671,-87.9365,8.5,5.13,141.8,-9999.0,'1111122,1111122,1111122' 
DISL,ioos:station:DISL:MHPA:1,2011-11-03T14:00:00Z,30.6671,-87.9365,8.5,4.92,150.0,-9999.0,'1111122,1111122,1111122' 
DISL,ioos:station:DISL:MHPA:1,2011-11-03T14:30:00Z,30.6671,-87.9365,8.5,4.58,149.0,-9999.0,'1111122,1111122,1111122' 
DISL,ioos:station:DISL:MHPA:1,2011-11-03T15:00:00Z,30.6671,-87.9365,8.5,5.74,161.9,-9999.0,'1111122,1111122,1111122' 
DISL,ioos:station:DISL:MHPA:1,2011-11-03T15:30:00Z,30.6671,-87.9365,8.5,6.54,170.2,-9999.0,'1111122,1111122,1111122' 
DISL,ioos:station:DISL:MHPA:1,2011-11-03T16:00:00Z,30.6671,-87.9365,8.5,7.38,175.7,-9999.0,'1111122,1111122,1111122' 
DISL,ioos:station:DISL:MHPA:1,2011-11-03T16:30:00Z,30.6671,-87.9365,8.5,8.42,176.2,-9999.0,'1111122,1111122,1111122' 
DISL,ioos:station:DISL:MHPA:1,2011-11-03T17:00:00Z,30.6671,-87.9365,8.5,6.92,179.3,-9999.0,'1111122,1111122,1111122' 
DISL,ioos:station:DISL:MHPA:1,2011-11-03T17:30:00Z,30.6671,-87.9365,8.5,5.66,185.6,-9999.0,'1111122,1111122,1111122' 
DISL,ioos:station:DISL:MHPA:1,2011-11-03T18:00:00Z,30.6671,-87.9365,8.5,6.22,177.1,-9999.0,'1111122,1111122,1111122' 
DISL,ioos:station:DISL:MHPA:1,2011-11-03T18:30:00Z,30.6671,-87.9365,8.5,6.49,187.8,-9999.0,'1111122,1111122,1111122' 
DISL,ioos:station:DISL:MHPA:1,2011-11-03T19:00:00Z,30.6671,-87.9365,8.5,4.33,198.1,-9999.0,'1111122,1111122,1111122' 
DISL,ioos:station:DISL:MHPA:1,2011-11-03T19:30:00Z,30.6671,-87.9365,8.5,5.56,237.2,-9999.0,'1111122,1111122,1111122' 
DISL,ioos:station:DISL:MHPA:1,2011-11-03T20:00:00Z,30.6671,-87.9365,8.5,3.3,254.2,-9999.0,'1111122,1111122,1111122' 
DISL,ioos:station:DISL:MHPA:1,2011-11-03T20:30:00Z,30.6671,-87.9365,8.5,8.04,322.1,-9999.0,'1111122,1111122,1111122' 
DISL,ioos:station:DISL:MHPA:1,2011-11-03T21:00:00Z,30.6671,-87.9365,8.5,5.64,338.6,-9999.0,'1111122,1111122,1111122' 
DISL,ioos:station:DISL:MHPA:1,2011-11-03T21:30:00Z,30.6671,-87.9365,8.5,4.83,333.7,-9999.0,'1111122,1111122,1111122' 
DISL,ioos:station:DISL:MHPA:1,2011-11-03T22:00:00Z,30.6671,-87.9365,8.5,3.23,2.672,-9999.0,'1111122,1111122,1111122' 
DISL,ioos:station:DISL:MHPA:1,2011-11-03T22:30:00Z,30.6671,-87.9365,8.5,5.5,338.4,-9999.0,'1111122,1111122,1111122' 
DISL,ioos:station:DISL:MHPA:1,2011-11-03T23:00:00Z,30.6671,-87.9365,8.5,5.0,331.0,-9999.0,'1111122,1111122,1111122' 
DISL,ioos:station:DISL:MHPA:1,2011-11-03T23:30:00Z,30.6671,-87.9365,8.5,2.84,345.5,-9999.0,'1111122,1111122,1111122' 
DISL,ioos:station:DISL:MHPA:1,2011-11-04T00:00:00Z,30.6671,-87.9365,8.5,3.41,338.7,-9999.0,'1111122,1111122,1111122' 
DISL,ioos:station:DISL:MHPA:1,2011-11-04T00:30:00Z,30.6671,-87.9365,8.5,5.98,337.1,-9999.0,'1111122,1111122,1111122' 
DISL,ioos:station:DISL:MHPA:1,2011-11-04T01:00:00Z,30.6671,-87.9365,8.5,5.84,351.0,-9999.0,'1111122,1111122,1111122' 
DISL,ioos:station:DISL:MHPA:1,2011-11-04T01:30:00Z,30.6671,-87.9365,8.5,4.96,348.2,-9999.0,'1111122,1111122,1111122' 
DISL,ioos:station:DISL:MHPA:1,2011-11-04T02:00:00Z,30.6671,-87.9365,8.5,4.61,1.267,-9999.0,'1111122,1111122,1111122' 
DISL,ioos:station:DISL:MHPA:1,2011-11-04T02:30:00Z,30.6671,-87.9365,8.5,5.43,352.9,-9999.0,'1111122,1111122,1111122' 
DISL,ioos:station:DISL:MHPA:1,2011-11-04T03:00:00Z,30.6671,-87.9365,8.5,4.14,355.7,-9999.0,'1111122,1111122,1111122' 
DISL,ioos:station:DISL:MHPA:1,2011-11-04T03:30:00Z,30.6671,-87.9365,8.5,4.07,341.6,-9999.0,'1111122,1111122,1111122' 
DISL,ioos:station:DISL:MHPA:1,2011-11-04T04:00:00Z,30.6671,-87.9365,8.5,3.44,334.3,-9999.0,'1111122,1111122,1111122' 
DISL,ioos:station:DISL:MHPA:1,2011-11-04T04:30:00Z,30.6671,-87.9365,8.5,2.61,337.9,-9999.0,'1111122,1111122,1111122' 
DISL,ioos:station:DISL:MHPA:1,2011-11-04T05:00:00Z,30.6671,-87.9365,8.5,2.85,339.3,-9999.0,'1111122,1111122,1111122' 
DISL,ioos:station:DISL:MHPA:1,2011-11-04T05:30:00Z,30.6671,-87.9365,8.5,3.12,336.5,-9999.0,'1111122,1111122,1111122' 
DISL,ioos:station:DISL:MHPA:1,2011-11-04T06:00:00Z,30.6671,-87.9365,8.5,3.34,331.1,-9999.0,'1111122,1111122,1111122' 
DISL,ioos:station:DISL:MHPA:1,2011-11-04T06:30:00Z,30.6671,-87.9365,8.5,3.1,344.2,-9999.0,'1111122,1111122,1111122' 
DISL,ioos:station:DISL:MHPA:1,2011-11-04T07:00:00Z,30.6671,-87.9365,8.5,2.97,341.1,-9999.0,'1111122,1111122,1111122' 
DISL,ioos:station:DISL:MHPA:1,2011-11-04T07:30:00Z,30.6671,-87.9365,8.5,2.84,346.8,-9999.0,'1111122,1111122,1111122' 
DISL,ioos:station:DISL:MHPA:1,2011-11-04T08:00:00Z,30.6671,-87.9365,8.5,3.71,342.6,-9999.0,'1111122,1111122,1111122' 
DISL,ioos:station:DISL:MHPA:1,2011-11-04T08:30:00Z,30.6671,-87.9365,8.5,3.08,338.0,-9999.0,'1111122,1111122,1111122' 
DISL,ioos:station:DISL:MHPA:1,2011-11-04T09:00:00Z,30.6671,-87.9365,8.5,3.65,348.1,-9999.0,'1111122,1111122,1111122' 
DISL,ioos:station:DISL:MHPA:1,2011-11-04T09:30:00Z,30.6671,-87.9365,8.5,4.35,345.7,-9999.0,'1111122,1111122,1111122' 
DISL,ioos:station:DISL:MHPA:1,2011-11-04T10:00:00Z,30.6671,-87.9365,8.5,4.49,345.0,-9999.0,'1111122,1111122,1111122' 
DISL,ioos:station:DISL:MHPA:1,2011-11-04T10:30:00Z,30.6671,-87.9365,8.5,3.61,348.4,-9999.0,'1111122,1111122,1111122' 
DISL,ioos:station:DISL:MHPA:1,2011-11-04T11:00:00Z,30.6671,-87.9365,8.5,3.25,341.4,-9999.0,'1111122,1111122,1111122' 
DISL,ioos:station:DISL:MHPA:1,2011-11-04T11:30:00Z,30.6671,-87.9365,8.5,3.55,352.1,-9999.0,'1111122,1111122,1111122' 
DISL,ioos:station:DISL:MHPA:1,2011-11-04T12:00:00Z,30.6671,-87.9365,8.5,3.27,346.4,-9999.0,'1111122,1111122,1111122' 
DISL,ioos:station:DISL:MHPA:1,2011-11-04T12:30:00Z,30.6671,-87.9365,8.5,2.9,339.4,-9999.0,'1111122,1111122,1111122' 
DISL,ioos:station:DISL:MHPA:1,2011-11-04T13:00:00Z,30.6671,-87.9365,8.5,3.74,345.1,-9999.0,'1111122,1111122,1111122' 
DISL,ioos:station:DISL:MHPA:1,2011-11-04T13:30:00Z,30.6671,-87.9365,8.5,3.64,339.6,-9999.0,'1111122,1111122,1111122' 
DISL,ioos:station:DISL:MHPA:1,2011-11-04T14:00:00Z,30.6671,-87.9365,8.5,4.44,340.6,-9999.0,'1111122,1111122,1111122' 
DISL,ioos:station:DISL:MHPA:1,2011-11-04T14:30:00Z,30.6671,-87.9365,8.5,5.6,352.3,-9999.0,'1111122,1111122,1111122' 
DISL,ioos:station:DISL:MHPA:1,2011-11-04T15:00:00Z,30.6671,-87.9365,8.5,5.73,349.7,-9999.0,'1111122,1111122,1111122' 
DISL,ioos:station:DISL:MHPA:1,2011-11-04T15:30:00Z,30.6671,-87.9365,8.5,5.3,345.1,-9999.0,'1111122,1111122,1111122' 
DISL,ioos:station:DISL:MHPA:1,2011-11-04T16:00:00Z,30.6671,-87.9365,8.5,5.76,358.5,-9999.0,'1111122,1111122,1111122' 
DISL,ioos:station:DISL:MHPA:1,2011-11-04T16:30:00Z,30.6671,-87.9365,8.5,5.51,354.2,-9999.0,'1111122,1111122,1111122' 
DISL,ioos:station:DISL:MHPA:1,2011-11-04T17:00:00Z,30.6671,-87.9365,8.5,5.67,9.1,-9999.0,'1111122,1111122,1111122' 
DISL,ioos:station:DISL:MHPA:1,2011-11-04T17:30:00Z,30.6671,-87.9365,8.5,4.7,10.41,-9999.0,'1111122,1111122,1111122' 
DISL,ioos:station:DISL:MHPA:1,2011-11-04T18:00:00Z,30.6671,-87.9365,8.5,5.31,349.8,-9999.0,'1111122,1111122,1111122' 
DISL,ioos:station:DISL:MHPA:1,2011-11-04T18:30:00Z,30.6671,-87.9365,8.5,5.1,7.26,-9999.0,'1111122,1111122,1111122' 
DISL,ioos:station:DISL:MHPA:1,2011-11-04T19:00:00Z,30.6671,-87.9365,8.5,4.58,0.839,-9999.0,'1111122,1111122,1111122' 
DISL,ioos:station:DISL:MHPA:1,2011-11-04T19:30:00Z,30.6671,-87.9365,8.5,5.03,335.0,-9999.0,'1111122,1111122,1111122' 
DISL,ioos:station:DISL:MHPA:1,2011-11-04T20:00:00Z,30.6671,-87.9365,8.5,4.7,359.1,-9999.0,'1111122,1111122,1111122' 
DISL,ioos:station:DISL:MHPA:1,2011-11-04T20:30:00Z,30.6671,-87.9365,8.5,4.77,358.7,-9999.0,'1111122,1111122,1111122' 
DISL,ioos:station:DISL:MHPA:1,2011-11-04T21:00:00Z,30.6671,-87.9365,8.5,5.55,351.6,-9999.0,'1111122,1111122,1111122' 
DISL,ioos:station:DISL:MHPA:1,2011-11-04T21:30:00Z,30.6671,-87.9365,8.5,4.55,2.564,-9999.0,'1111122,1111122,1111122' 
DISL,ioos:station:DISL:MHPA:1,2011-11-04T22:00:00Z,30.6671,-87.9365,8.5,4.93,1.357,-9999.0,'1111122,1111122,1111122' 
DISL,ioos:station:DISL:MHPA:1,2011-11-04T22:30:00Z,30.6671,-87.9365,8.5,4.33,354.3,-9999.0,'1111122,1111122,1111122' 
DISL,ioos:station:DISL:MHPA:1,2011-11-04T23:00:00Z,30.6671,-87.9365,8.5,3.44,348.8,-9999.0,'1111122,1111122,1111122' 
DISL,ioos:station:DISL:MHPA:1,2011-11-04T23:30:00Z,30.6671,-87.9365,8.5,2.71,334.7,-9999.0,'1111122,1111122,1111122' 
DISL,ioos:station:DISL:MHPA:1,2011-11-05T00:00:00Z,30.6671,-87.9365,8.5,2.26,356.0,-9999.0,'1111122,1111122,1111122' 
DISL,ioos:station:DISL:MHPA:1,2011-11-05T00:30:00Z,30.6671,-87.9365,8.5,2.04,351.9,-9999.0,'1111122,1111122,1111122' 
DISL,ioos:station:DISL:MHPA:1,2011-11-05T01:00:00Z,30.6671,-87.9365,8.5,2.85,0.811,-9999.0,'1111122,1111122,1111122' 
DISL,ioos:station:DISL:MHPA:1,2011-11-05T01:30:00Z,30.6671,-87.9365,8.5,2.31,339.1,-9999.0,'1111122,1111122,1111122' 
DISL,ioos:station:DISL:MHPA:1,2011-11-05T02:00:00Z,30.6671,-87.9365,8.5,1.29,330.0,-9999.0,'1111122,1111122,1111122' 
DISL,ioos:station:DISL:MHPA:1,2011-11-05T02:30:00Z,30.6671,-87.9365,8.5,1.76,323.9,-9999.0,'1111122,1111122,1111122' 
DISL,ioos:station:DISL:MHPA:1,2011-11-05T03:00:00Z,30.6671,-87.9365,8.5,1.63,323.9,-9999.0,'1111122,1111122,1111122' 
DISL,ioos:station:DISL:MHPA:1,2011-11-05T03:30:00Z,30.6671,-87.9365,8.5,2.38,334.7,-9999.0,'1111122,1111122,1111122' 
DISL,ioos:station:DISL:MHPA:1,2011-11-05T04:00:00Z,30.6671,-87.9365,8.5,2.15,342.8,-9999.0,'1111122,1111122,1111122' 
DISL,ioos:station:DISL:MHPA:1,2011-11-05T04:30:00Z,30.6671,-87.9365,8.5,2.45,346.5,-9999.0,'1111122,1111122,1111122' 
DISL,ioos:station:DISL:MHPA:1,2011-11-05T05:00:00Z,30.6671,-87.9365,8.5,2.43,344.4,-9999.0,'1111122,1111122,1111122' 